Preview of NWS' New Version of Forecast
This preview is not operational and should not be used for support decisions.
Latest weather observations around

Santa Barbara, Santa Barbara Municipal Airport (KSBA)

Using English Units (Switch to International System of Units)
Date/ Time (PDT) Wind (mph) Vis. (mi) Weather Sky Cond. Temp (°F) Rel. Humidity Wind Chill (°F) Heat Index (°F) Pressure Precip. (in)
Air Dwpt 6 hour Altimeter (inHg) Sea level (inHg) 1 hr 3 hr 6 hr
Max Min
Aug 23 03:53 Calm 4 Fog/Mist OVC006 65 63     93%     29.82 29.82      
Aug 23 02:53 ENE 6 7 Cloudy OVC006 65 62     90%     29.81 29.81      
Aug 23 02:48 E 7 8 Cloudy OVC006 64 63     94%     29.81        
Aug 23 01:53 E 5 7 Cloudy OVC004 64 62     93%     29.8 29.8      
Aug 23 00:53 SE 6 6 Fog/Mist OVC004 63 62     97%     29.79 29.78      
Aug 22 23:53 SE 7 7 Cloudy OVC004 63 62     97%     29.79 29.78      
Aug 22 23:15 SE 7 5 Fog/Mist BKN002 OVC006 63 62     97%     29.78        
Aug 22 22:53   2.5 Fog/Mist OVC002 63 62     97%     29.78 29.78      
Aug 22 22:44 ESE 6 2.5 Fog/Mist OVC002 63 62     97%     29.78        
Aug 22 21:53 SE 6 10 Mostly Cloudy BKN006 64 62     93%     29.78 29.78      
Aug 22 20:53 SE 5 10 Clear CLR 64 61     90%     29.78 29.77      
Aug 22 19:53 SE 3 10 Clear CLR 66 62     87%     29.76 29.76      
Aug 22 18:53 SSE 5 10 Clear CLR 67 62     84%     29.75 29.75      
Aug 22 17:53 SE 6 10 Clear CLR 68 61     78%     29.74 29.74      
Aug 22 16:53 S 5 10 Clear CLR 70 62     76%     29.74 29.74      
Aug 22 15:53 S 7 10 Clear CLR 73 63     71%   73 29.75 29.74      
Aug 22 14:53 6 10 Haze FEW012 72 63     73%   72 29.77 29.77      
Aug 22 13:53 S 8 9 Haze FEW008 71 64     79%   72 29.79 29.79      
Aug 22 12:53 SSE 8 6 Haze FEW005 72 64     76%   72 29.81 29.81      
Aug 22 12:15 S 8 8 Partly Cloudy SCT006 71 64     79%   72 29.82        
Aug 22 11:53 SSE 8 8 Mostly Cloudy BKN005 70 64     81%     29.82 29.82      
Aug 22 11:27 SE 10 5 Haze BKN003 70 64     81%     29.82        
Aug 22 10:53 SE 14 10 Mostly Clear FEW001 70 64     81%     29.81 29.81      
Aug 22 09:53 SSE 7 9 Mostly Clear FEW001 69 64     84%     29.8 29.8      
Aug 22 08:53 SE 5 5 Fog/Mist FEW003 68 65     90%     29.78 29.78      
Aug 22 08:22 SE 5 4 Fog/Mist FEW003 67 64     90%     29.78        
Aug 22 07:53 SE 3 9 Clear CLR 67 62     84%     29.77 29.77      
Aug 22 06:53 NNE 6 10 Clear CLR 62 57     84%     29.77 29.77      
Aug 22 05:53 NE 6 10 Clear CLR 61 58     90%     29.74 29.74      
Aug 22 04:53 NNE 3 10 Clear CLR 59 54     83%     29.73 29.73      
Aug 22 03:53 N 7 10 Clear CLR 59 54     83%     29.73 29.73      
Aug 22 02:53 Calm 10 Clear CLR 59 55     87%     29.72 29.72      
Aug 22 01:53 NE 3 10 Clear CLR 62 56     80%     29.73 29.72      
Aug 22 00:53 Calm 10 Clear CLR 61 58     90%     29.74 29.73      
Aug 21 23:53 Calm 10 Clear CLR 61 58     90%     29.74 29.74      
Aug 21 22:53 Calm 9 Clear CLR 62 59     90%     29.75 29.75      
Aug 21 21:53 Calm 9 Clear CLR 65 60     84%     29.75 29.75      
Aug 21 20:53 Calm 9 Clear CLR 66 62     87%     29.75 29.75      
Aug 21 19:53 SE 10 8 Clear CLR 67 61     81%     29.74 29.74      
Aug 21 18:53 SE 9 8 Clear CLR 68 61     78%     29.73 29.73      
Aug 21 17:53 SE 8 9 Clear CLR 70 61     73%     29.74 29.74      
Aug 21 16:53 SE 7 10 Clear CLR 71 61     70%   71 29.75        
Aug 21 15:53 SSE 9 10 Clear CLR 74 62     66%   74 29.78        
Aug 21 14:53 S 6 10 Clear CLR 78 59     52%   78 29.8 29.8      
Aug 21 13:53 7 10 Clear CLR 76 61     60%   76 29.83 29.83      
Aug 21 12:53 SSW 5 10 Clear CLR 75 59     57%   75 29.85 29.84      
Aug 21 11:53 SSW 7 10 Clear CLR 76 61     60%   76 29.86 29.85      
Aug 21 10:53 SE 6 10 Clear CLR 70 62     76%     29.88 29.87      
Aug 21 09:53 SE 6 10 Clear CLR 69 62     78%     29.87 29.87      
Aug 21 08:53 SE 5 10 Clear CLR 69 61     75%     29.86 29.86      
Aug 21 07:53 Calm 10 Clear CLR 65 58     78%     29.86 29.86      
Aug 21 06:53 Calm 10 Clear CLR 58 55     90%     29.85 29.85      
Aug 21 05:53 Calm 10 Clear CLR 57 54     89%     29.83 29.83      
Aug 21 04:53 Calm 10 Clear CLR 59 56     90%     29.83 29.83      
Aug 21 03:53 WNW 5 10 Clear CLR 58 55     90%     29.83 29.83      
Aug 21 02:53 Calm 10 Clear CLR 59 56     90%     29.84 29.84      
Aug 21 01:53 Calm 10 Clear CLR 61 57     87%     29.84        
Aug 21 00:53 NE 5 10 Clear CLR 64 59     84%     29.85 29.85      
Aug 20 23:53 Calm 10 Clear CLR 65 60     84%     29.85 29.85      
Aug 20 22:53 NW 3 10 Clear CLR 64 60     87%     29.86 29.86      
Aug 20 21:53 SE 3 10 Clear CLR 65 60     84%     29.86 29.85      
Aug 20 20:53 Calm 10 Clear CLR 66 61     84%     29.85        
Aug 20 19:53 SE 5 10 Clear CLR 66 61     84%     29.85        
Aug 20 18:53 SE 9 10 Clear CLR 68 61     78%     29.85 29.85      
Aug 20 17:53 SE 7 10 Clear CLR 71 61     70%   71 29.86 29.86      
Aug 20 16:53 SSE 5 10 Clear CLR 76 59     56%   76 29.87 29.87      
Aug 20 15:53 S 6 10 Clear CLR 77 58     52%   77 29.88 29.88      
Aug 20 14:53 SSE 8 10 Clear CLR 73 61     66%   73 29.91 29.91      
Aug 20 13:53 S 7 10 Clear CLR 75 58     55%   75 29.92 29.92      
Aug 20 12:53 SSW 7 10 Clear CLR 73 60     64%   73 29.93        
Aug 20 11:53 S 6 10 Clear CLR 72 61     68%   72 29.95        
Aug 20 10:53 SSE 8 10 Clear CLR 68 62     81%     29.96 29.96      
Aug 20 09:53 SSE 9 10 Mostly Clear FEW006 68 61     78%     29.96 29.96      
Aug 20 08:53 SSE 6 10 Mostly Clear FEW006 67 60     79%     29.95 29.95      
Aug 20 08:11 Calm 10 Mostly Clear FEW010 64 58     81%     29.95        
Aug 20 07:53 Calm 10 Clear CLR 63 58     84%     29.94 29.94      
Aug 20 06:53 Calm 10 Clear CLR 56 54     93%     29.94 29.93      
Aug 20 05:53 Calm 10 Clear CLR 56 54     93%     29.93 29.92      
Aug 20 04:53 WNW 3 10 Clear CLR 57 54     89%     29.92 29.91      
May 15 11:53 S 8 10 Mostly Clear FEW040 63 53     70%     30.07 30.06      
May 15 01:53 Calm 10 Clear   52 47     83%     29.98 29.98      
May 14 16:53 W 15 10 Clear CLR 64 48     56%     29.96 29.95      
May 14 13:53   10 Clear CLR 66 50     56%     30 30      
May 12 22:53 W 8 10 Cloudy OVC042 58 53     84%     30.01 30.01      
May 12 00:53 Calm 10 Cloudy OVC019 57 51     81%     29.88 29.87      
May 11 17:53 W 7 10 Cloudy OVC018 58 51     78%     29.81 29.81      
May 11 08:53 SSW 6 8 Cloudy OVC026 59 53     81%     29.87 29.87      
Jun 11 20:53 WNW 13 10 Clear CLR 60 42     51%     29.93 29.93      
Jun 11 19:53 NNW 16 10 Clear CLR 63 41     45%     29.92 29.92      
Jun 10 01:53 E 6 10 Clear CLR 60 52     75%     29.86 29.86      
Jun 09 14:53   10 Partly Cloudy FEW004 SCT040 69 61     75%     29.91 29.91      
Jun 08 20:33 SE 11 10 Clear CLR 63 56     78%     29.9        
Jun 08 09:04 WSW 6 10 Partly Cloudy SCT030 64 56     75%     30.01        
Jun 08 04:53 Calm 10 Cloudy FEW010 OVC019 59 57     93%     29.99 29.98      
Jun 07 23:53 Calm 10 Cloudy OVC019 61 57     87%     29.98 29.97      
Jun 07 22:53 W 7 10 Cloudy OVC020 59 57     93%     29.98 29.98      
Jun 07 15:53 W 9 10 Cloudy OVC023 64 57     78%     29.95 29.95